TimeMDT,TemperatureF,Dew PointF,Humidity,Sea Level PressureIn,VisibilityMPH,Wind Direction,Wind SpeedMPH,Gust SpeedMPH,PrecipitationIn,Events,Conditions,WindDirDegrees,DateUTC
12:51 AM,51.1,37.0,59,29.92,10.0,West,8.1,-,N/A,,Overcast,280,2013-06-13 06:51:00
1:51 AM,48.9,37.0,64,29.94,10.0,NW,4.6,-,N/A,,Overcast,310,2013-06-13 07:51:00
2:51 AM,48.0,37.0,66,29.93,10.0,WNW,13.8,18.4,N/A,,Overcast,300,2013-06-13 08:51:00
3:51 AM,44.1,37.0,76,29.98,5.0,NNW,9.2,-,0.03,Rain,Heavy Rain,330,2013-06-13 09:51:00
4:51 AM,44.1,39.0,82,29.96,10.0,NE,5.8,-,0.02,,Overcast,40,2013-06-13 10:51:00
5:51 AM,44.1,39.0,82,29.96,10.0,NNE,8.1,-,0.00,,Overcast,20,2013-06-13 11:51:00
6:51 AM,44.1,39.0,82,29.93,10.0,North,4.6,-,N/A,,Overcast,10,2013-06-13 12:51:00
7:51 AM,45.0,37.9,76,29.95,10.0,Calm,Calm,-,N/A,,Overcast,0,2013-06-13 13:51:00
8:51 AM,48.9,37.9,66,29.95,10.0,North,4.6,-,N/A,,Overcast,10,2013-06-13 14:51:00
9:51 AM,50.0,37.0,61,29.98,10.0,Variable,3.5,-,N/A,,Mostly Cloudy,0,2013-06-13 15:51:00
10:51 AM,52.0,36.0,54,29.96,10.0,Calm,Calm,-,N/A,,Partly Cloudy,0,2013-06-13 16:51:00
11:51 AM,54.0,34.0,47,29.97,10.0,Calm,Calm,-,N/A,,Mostly Cloudy,0,2013-06-13 17:51:00
12:51 PM,53.1,39.0,59,29.98,10.0,Variable,3.5,-,0.00,Rain,Light Rain,0,2013-06-13 18:51:00
1:51 PM,55.9,36.0,47,29.97,10.0,Variable,4.6,-,0.00,,Partly Cloudy,0,2013-06-13 19:51:00
2:51 PM,55.0,33.1,43,29.99,10.0,West,13.8,23.0,N/A,,Overcast,280,2013-06-13 20:51:00
3:51 PM,55.0,32.0,42,29.99,10.0,West,10.4,18.4,N/A,,Scattered Clouds,270,2013-06-13 21:51:00
4:51 PM,55.9,33.1,42,30.00,10.0,Variable,5.8,-,N/A,,Mostly Cloudy,0,2013-06-13 22:51:00
5:51 PM,57.0,30.0,36,29.99,10.0,West,9.2,-,0.00,,Overcast,260,2013-06-13 23:51:00
6:51 PM,55.9,28.0,34,29.99,10.0,West,8.1,-,N/A,,Scattered Clouds,270,2013-06-14 00:51:00
7:51 PM,54.0,30.9,41,29.98,10.0,Variable,3.5,-,N/A,,Overcast,0,2013-06-14 01:51:00
8:22 PM,53.6,28.4,38,30.04,10.0,West,5.8,-,N/A,Thunderstorm,Overcast,280,2013-06-14 02:22:00
8:47 PM,46.4,35.6,66,30.09,10.0,WSW,18.4,26.5,0.00,Rain,Light Rain,240,2013-06-14 02:47:00
8:51 PM,45.0,35.1,68,30.07,9.0,WSW,15.0,26.5,0.00,Rain-Thunderstorm,Light Thunderstorms and Rain,250,2013-06-14 02:51:00
9:10 PM,42.8,35.6,76,30.10,9.0,WSW,9.2,18.4,0.06,Rain,Light Rain,250,2013-06-14 03:10:00
9:33 PM,42.8,35.6,76,30.09,10.0,Variable,6.9,-,0.08,Rain,Light Rain,0,2013-06-14 03:33:00
9:51 PM,44.1,37.0,76,30.07,10.0,ENE,5.8,-,0.08,,Overcast,70,2013-06-14 03:51:00
10:51 PM,43.0,37.0,80,30.07,10.0,Calm,Calm,-,N/A,,Mostly Cloudy,0,2013-06-14 04:51:00
11:51 PM,42.1,37.0,82,30.07,10.0,NW,3.5,-,N/A,,Partly Cloudy,310,2013-06-14 05:51:00